Regional Weather Roundup
Issued by NWS Bismarck, ND

Home | Current Version | Previous Version | Text Only | Print | Product List | Glossary On
Versions: 1 2 3 4 5 6 7 8 9 10 11 12 13 14 15 16 17 18 19 20 21 22 23 24 25 26 27 28 29 30 31 32 33 34 35 36 37 38 39 40 41 42 43 44 45 46 47 48 49 50
000
ASUS43 KBIS 250802
RWRBIS

NWR BROADCAST TEXT
NATIONAL WEATHER SERVICE BISMARCK ND
300 AM CDT THU AUG 25 2016

NOTE: "FAIR" INDICATES FEW OR NO CLOUDS BELOW 12,000 FEET WITH NO
SIGNIFICANT WEATHER AND/OR OBSTRUCTIONS TO VISIBILITY.


CITY           SKY/WX    TMP DP  RH WIND       PRES   REMARKS
WILLISTON      CLOUDY    54  49  83 NW12      30.16S
MINOT          CLOUDY    56  51  84 W17G24    30.03S
MINOT AFB      CLOUDY    54  52  94 NW18      30.03R
BISMARCK       CLOUDY    58  48  69 W17G26    30.08S
DICKINSON      CLOUDY    52  46  80 W16       30.15R
GARRISON         N/A     54  50  86 W18G25    30.07S
HETTINGER ARPT CLEAR     48  44  86 W10       30.19S
JAMESTOWN      CLOUDY    57  52  83 W14       30.00S
CARRINGTON     CLOUDY    55  52  88 W14       30.01S
OAKES            N/A    N/A N/A N/A MISG        N/A
STANLEY        CLOUDY    52  52 100 NW13G18   30.13R
$$

CITY           SKY/WX    TMP DP  RH WIND       PRES   REMARKS
GRAND FORKS    CLEAR     58  53  84 W10       29.90S
GRAND FORKS AF CLEAR     57  53  86 W12       29.91R
DEVILS LAKE    CLOUDY    57  54  89 W17       29.94S
FARGO          CLEAR     57  51  80 W12       29.95S
CAVALIER       FAIR      57  54  88 W8        29.87R
GRAFTON        FAIR      57  57 100 W13       29.90R
GWINNER        FAIR      55  52  88 W9        30.02S
LANGDON        CLOUDY    55  55 100 W12       29.90S
ROLLA          LGT RAIN  54  54 100 NW13G20   29.95R
$$

CITY           SKY/WX    TMP DP  RH WIND       PRES   REMARKS
ABERDEEN       PTCLDY    52  47  83 W5        30.07S
MOBRIDGE       CLEAR     57  46  66 W12       30.11R
BUFFALO          N/A     47  42  83 NW14      30.15S
RAPID CITY     MOCLDY    56  42  59 N17       30.23S
GLASGOW        CLOUDY    51  43  74 W7        30.23S
WOLF POINT     LGT RAIN  54  49  83 N8        30.23R
GLENDIVE       CLOUDY    53  45  74 NW13      30.23R
MILES CITY     CLEAR     52  43  71 NW8       30.26S
BAKER          LGT RAIN  51  48  89 W15       30.23R
$$

CITY           SKY/WX    TMP DP  RH WIND       PRES   REMARKS
BILLINGS       PTCLDY    49  38  65 NW3       30.32S
GREAT FALLS    CLEAR     44  38  79 SW9       30.31F
$$





USA.gov is the U.S. government's official web portal to all federal, state and local government web resources and services.